TIME,DELAY(SENSOR),PRES,T(CTD),SAL,OXYGEN,RAWTEMP,T(OPTODE),TCPHASE,TURBIDITY,TURBIDITY_GAIN,FLUOR,BETA,CDOM,ED411.5,ED443.8,ED489.6,PAR,COMP,TILT,TILTY(TILT),CHECK
1341254939,6467,201.7700042724609400,5.3074002265930180,34.9995994567871100,360.3667907714844000,642.7125244140625000,5.2866630554199220,32.2997589111328100,16,3,50,141,62,2147637142,2147394061,2147290440,2148322669,987,0,-4,3265
1341255000,6468,198.7500000000000000,5.3116998672485350,35.0004005432128900,360.2697143554687500,642.5507202148438000,5.2919077873229980,32.2998390197753900,65,3,48,118,62,2147635190,2147396278,2147291414,2148321745,230,0,-4,49875
1341255061,6468,195.6300048828125000,5.3172998428344730,35.0009002685546900,360.2525024414062500,642.3781738281250000,5.2975010871887210,32.2972297668457000,16,3,49,116,62,2147636781,2147393375,2147291510,2148320364,3076,0,-4,43337
1341255126,6468,192.2100067138672000,5.3220000267028810,35.0007019042968750,360.2579956054687500,642.2202758789062000,5.3026218414306640,32.2944984436035160,16,3,49,118,62,2147637124,2147393270,2147290870,2148320520,2571,0,-4,22149
1341255187,6468,188.8999938964843800,5.3249001502990720,35.0005989074707000,360.3599853515625000,642.1328125000000000,5.3054580688476560,32.2895812988281250,11,3,50,115,62,2147634788,2147392616,2147294084,2148321106,2178,0,-4,58992
1341255248,6468,185.4700012207031200,5.3267998695373535,35.0001983642578100,360.3681945800781000,642.0684814453125000,5.3075428009033200,32.2880783081054700,16,3,49,117,62,2147639424,2147395560,2147293920,2148321334,1729,0,-4,2430
1341255309,6467,181.9600067138672000,5.3295998573303220,35.0005989074707000,360.6716918945312500,641.9871215820312000,5.3101830482482910,32.2769508361816400,16,3,50,123,62,2147635821,2147390779,2147293197,2148323112,1365,0,-4,15381
1341255370,6468,178.3399963378906200,5.3337001800537110,35.0009994506835940,360.5573120117187500,641.8461303710938000,5.3147511482238770,32.2782096862793000,16,3,49,121,62,2147637513,2147393507,2147296260,2148320657,945,0,-4,46770
1341255431,6467,174.6699981689453000,5.3414001464843750,35.0009002685546900,360.4070129394531000,641.6401977539062000,5.3214240074157715,32.2793083190918000,16,3,49,116,62,2147638737,2147396113,2147295885,2148322998,221,0,-4,57259
1341255494,6467,170.7599945068359400,5.3482999801635740,35.0015983581543000,360.3776855468750000,641.3969116210938000,5.3293108940124510,32.2760696411132800,16,3,50,117,62,2147638084,2147394345,2147300493,2148320242,3103,0,-4,50920
1341255555,6468,166.9900054931640600,5.3537998199462890,35.0018997192382800,360.3504028320312500,641.2258300781250000,5.3348579406738280,32.2737998962402340,16,3,50,120,62,2147638047,2147395752,2147299506,2148318166,2572,0,-4,27069
1341255642,6468,162.2100067138672000,5.3621997833251950,35.0019989013671900,360.2980041503906000,641.0089111328125000,5.3418850898742680,32.2715492248535160,16,3,50,118,62,2147636214,2147397855,2147302555,2148322998,2116,0,-4,16030
1341255703,6469,159.7899932861328000,5.3660998344421390,35.0022010803222660,360.2905883789062500,640.8916015625000000,5.3456859588623050,32.2697410583496100,16,3,50,115,62,2147634061,2147396584,2147306061,2148320054,1886,0,-4,31260
1341255766,6468,157.4100036621093800,5.3688001632690430,35.0026016235351560,360.3764038085937500,640.7935180664062000,5.3488659858703610,32.2653884887695300,16,3,50,116,62,2147634499,2147397819,2147300379,2148323647,1745,0,-4,55456
1341255827,6466,155.1499938964843800,5.3712000846862790,35.0024986267089840,360.2937927246094000,640.7130737304688000,5.3514709472656250,32.2664413452148440,16,3,50,118,62,2147636059,2147397274,2147296141,2148323277,1598,0,-4,14863
1341255914,6468,151.1699981689453000,5.3751001358032230,35.0024986267089840,360.0404052734375000,640.6118774414062000,5.3547501564025880,32.2726783752441400,12,3,50,120,62,2147635967,2147396114,2147299405,2148321059,1279,0,-4,50050
1341255975,6468,147.3800048828125000,5.3794999122619630,35.0026016235351560,359.9963073730469000,640.4578247070312000,5.3597431182861330,32.2714309692382800,16,3,50,120,61,2147635139,2147396347,2147300516,2148321458,725,0,-4,27186
1341256038,6465,143.4600067138672000,5.3828001022338870,35.0023002624511700,359.9338073730469000,640.3682861328125000,5.3626418113708500,32.2718696594238300,16,3,50,126,62,2147637581,2147398500,2147311798,2148321764,27,0,-4,14600
1341256099,6468,139.7200012207031200,5.3864002227783200,35.0023994445800800,359.7561035156250000,640.2653808593750000,5.3659758567810060,32.2758216857910160,13,3,50,123,60,2147632081,2147399441,2147332141,2148327611,3139,0,-4,61926
1341256186,6466,135.1600036621093800,5.3933000564575195,35.0029983520507800,359.6395874023437500,640.0401000976562000,5.3732762336730960,32.2754898071289060,300,3,50,118,62,2147635044,2147401133,2147351117,2148328443,2544,0,-4,59955
1341256247,6468,133.1600036621093800,5.4008002281188965,35.0027999877929700,359.6817932128906000,639.8361816406250000,5.3798789978027340,32.2706794738769500,17,3,50,122,62,2147638207,2147402564,2147357494,2148329142,2461,0,-4,47099
1341256334,6467,129.9600067138672000,5.4102001190185550,35.0038986206054700,359.4543151855469000,639.5128784179688000,5.3903517723083500,32.2722511291503900,16,3,50,123,62,2147636918,2147404264,2147366660,2148329334,2226,0,-4,40887
1341256395,6469,126.6600036621093800,5.4257998466491700,35.0040016174316400,359.0815124511719000,639.0861816406250000,5.4041728973388670,32.2767791748046900,16,3,50,120,62,2147638307,2147406386,2147374289,2148331007,1737,0,-4,47826
1341256458,6466,123.2099990844726600,5.4299001693725590,35.0043983459472660,358.6661071777344000,638.9194946289062000,5.4095730781555180,32.2869796752929700,11,3,50,171,62,2147638148,2147406866,2147388305,2148334513,1416,0,-4,2997
1341256519,6468,119.9100036621093800,5.4369997978210450,35.0046005249023440,358.5025939941406000,638.7058105468750000,5.4164910316467285,32.2886810302734400,12,3,52,146,62,2147636319,2147411386,2147404575,2148337489,977,0,-4,20799
1341256583,6467,116.5299987792968800,5.4465999603271480,35.0045013427734400,358.2745971679687500,638.3023071289062000,5.4295558929443360,32.2885284423828100,12,3,50,147,62,2147639839,2147413366,2147421759,2148337220,308,0,-4,8852
1341256644,6468,113.4000015258789000,5.4700999259948730,35.0049018859863300,357.9749145507812500,637.6909790039062000,5.4493479728698730,32.2877883911132800,17,3,51,126,62,2147637554,2147415268,2147435803,2148339620,3280,0,-4,10255
1341256707,6467,110.2300033569336000,5.4844999313354490,35.0055007934570300,357.7384948730469000,637.2271118164062000,5.4643650054931640,32.2871704101562500,16,3,53,128,62,2147640132,2147421577,2147456374,2148344534,2755,0,-4,3521
1341256768,6467,107.2399978637695300,5.5036001205444340,35.0056991577148440,357.2792968750000000,636.6663818359375000,5.4825100898742680,32.2920494079589840,16,3,53,153,62,2147639784,2147425992,2147482902,2148350504,2434,0,-4,30610
1341256831,6466,104.2699966430664000,5.5471000671386720,35.0054016113281250,357.1706848144531000,635.4379882812500000,5.5222530364990230,32.2737693786621100,15,3,53,136,62,2147638468,2147430435,2147509124,2148351830,2227,0,-4,26074
1341256892,6468,101.4899978637695300,5.5748000144958500,35.0056991577148440,357.2636108398437500,634.4752807617188000,5.5533890724182130,32.2539405822753900,14,3,54,169,62,2147641846,2147433956,2147528832,2148357256,1927,0,-4,33572
1341256955,6466,98.7200012207031200,5.6038999557495120,35.0051002502441400,357.8479919433594000,633.6309814453125000,5.5806870460510250,32.2199211120605500,15,3,53,128,62,2147642884,2147437247,2147557128,2148361256,1557,0,-4,25208
1341257016,6468,96.1399993896484400,5.6175999641418460,35.0055007934570300,358.2726135253906000,633.1348266601562000,5.5967249870300290,32.1978912353515600,14,3,54,141,62,2147642344,2147441745,2147574705,2148363254,1252,0,-4,54745
1341257079,6468,93.6299972534179700,5.6652002334594730,35.0051994323730500,358.5505065917969000,631.8059082031250000,5.6396732330322270,32.1655998229980500,14,3,54,147,62,2147641023,2147446006,2147594518,2148362129,761,0,-4,41391
1341257140,6468,91.3099975585937500,5.7006998062133790,35.0045013427734400,359.2539062500000000,630.7653198242188000,5.6732878684997560,32.1245689392089840,16,3,55,142,62,2147641672,2147443844,2147552013,2148360342,3467,0,-4,1134
1341257231,6468,87.3499984741211000,5.7593998908996580,35.0037002563476560,360.7049865722656000,628.8181152343750000,5.7361640930175780,32.0443992614746100,21,3,56,154,62,2147642555,2147445338,2147535625,2148359995,2644,0,-4,52725
1341257292,6469,83.8300018310546900,5.7958998680114750,35.0057983398437500,361.7031860351562500,627.3126831054688000,5.7847399711608890,31.9863491058349600,31,3,60,183,61,2147642688,2147443282,2147542252,2148362303,2226,0,-4,51576
1341257355,6468,80.2699966430664000,5.8694000244140625,35.0036010742187500,363.4811096191406000,625.3928222656250000,5.8466677665710450,31.8966293334960940,18,3,59,178,61,2147648594,2147447908,2147519944,2148358472,1680,0,-4,10768
1341257416,6469,76.9599990844726600,5.9246001243591310,35.0032005310058600,364.9588928222656000,623.6005249023438000,5.9044418334960940,31.8191890716552730,14,3,62,160,62,2147648328,2147452877,2147541430,2148364260,1407,0,-4,54144
1341257479,6468,73.5100021362304700,5.9563999176025390,35.0010986328125000,366.6791076660156000,622.6937255859375000,5.9336590766906740,31.7495002746582030,29,3,68,166,62,2147653123,2147480786,2147650285,2148383738,965,0,-4,15858
1341257540,6469,70.1999969482421900,5.9731998443603520,34.9986991882324200,368.2496948242187500,622.0170288085938000,5.9554600715637210,31.6889190673828120,16,3,76,191,61,2147665170,2147524264,2147849499,2148421924,361,0,-4,26857
1341257603,6468,66.8000030517578100,6.0138001441955570,34.9999008178710940,369.4336853027344000,620.7797851562500000,5.9952998161315920,31.6312503814697270,16,3,74,201,62,2147673160,2147560644,2147991926,2148455149,3176,0,-4,25291
1341257664,6469,63.4599990844726560,6.0504999160766600,35.0007019042968750,369.7858886718750000,619.6508178710938000,6.0316448211669920,31.6009902954101560,21,3,78,165,63,2147687181,2147611350,2148186541,2148500722,2777,0,-4,32036
1341257727,6468,60.1199989318847660,6.0720000267028810,35.0010986328125000,369.4110107421875000,618.9484252929688000,6.0542488098144530,31.6005802154541000,17,3,85,202,61,2147705251,2147680086,2148435542,2148560127,2409,0,-4,37703
1341257788,6470,57.0000000000000000,6.1038999557495120,35.0004005432128900,368.7369995117187500,617.9603881835938000,6.0860347747802730,31.6043701171875000,16,3,96,233,64,2147728580,2147721869,2148551012,2148594783,1861,0,-4,36678
1341257852,6468,53.9399986267089840,6.1711001396179200,34.9986000061035160,368.2992858886719000,615.8041992187500000,6.1553750038146970,31.5811500549316400,30,3,112,285,63,2147755034,2147766665,2148665243,2148629458,1296,0,-4,39355
1341257913,6469,51.2400016784668000,6.3064999580383300,34.9954986572265600,368.3261108398437500,612.0015258789062000,6.2775502204895020,31.5156593322753900,68,3,171,230,64,2147791986,2147847661,2148894764,2148695794,640,0,-4,20864
1341257976,6470,48.6599998474121100,6.4984998703002930,34.9915008544921900,368.6126098632812500,606.6198730468750000,6.4502091407775880,31.4156494140625000,32,3,234,303,64,2147833069,2147922961,2149127282,2148761746,3007,0,-4,13261
1341258037,6471,46.4000015258789060,6.5522999763488770,34.9939994812011700,370.0151062011719000,602.7454833984375000,6.5743370056152340,31.3074302673339840,61,3,268,304,64,2147906024,2148038440,2149369155,2148844072,2679,0,-4,39338
1341258127,6471,42.5800018310546900,7.0286998748779300,34.9804000854492200,375.6702880859375000,589.0139160156250000,7.0131211280822750,30.9077606201171880,78,3,532,506,64,2148130217,2148445851,2150364091,2149118921,1743,0,-4,3184
1341258188,6469,39.1500015258789060,7.3203001022338870,34.9791984558105500,384.9656066894531000,578.8775024414062000,7.3358960151672360,30.4683208465576170,103,3,540,751,64,2148547510,2149164191,2151873119,2149548909,2073,0,-4,5799
1341258251,6471,35.3800010681152340,7.5918998718261720,34.9784011840820300,394.3479919433594000,571.8572998046875000,7.5588989257812500,30.0867195129394530,120,3,525,788,63,2149428210,2150578294,2154639967,2150365727,1440,0,-4,60313
1341258312,6472,31.4699993133544920,7.7824001312255860,34.9780006408691400,401.7036132812500000,565.6328735351562000,7.7562580108642580,29.7828903198242200,126,3,471,959,64,2151132214,2153067908,2158788429,2151675588,847,0,-4,1531
1341258399,6472,26.3799991607666000,8.0327997207641600,34.9752006530761700,408.2528076171875000,558.0291137695312000,7.9969010353088380,29.4852504730224600,159,3,390,1181,62,2155734765,2159169106,2167925338,2154795414,3503,0,-3,40684
1341258460,6472,23.6000003814697270,8.2365999221801760,34.9748992919921900,410.6022949218750000,552.1973266601562000,8.1811275482177730,29.3319301605224600,124,3,382,886,62,2159481896,2163675305,2173830843,2156989009,2802,2,-4,4479
1341258524,6470,20.9099998474121100,8.3304996490478520,34.9758987426757800,413.4407043457031000,548.5670166015625000,8.2956657409667970,29.2003593444824220,124,3,369,854,61,2165204945,2170732283,2183567496,2160601782,2504,0,-3,2681
1341258585,6471,18.3299999237060550,8.5756998062133790,34.9725990295410160,413.9165039062500000,540.6032104492188000,8.5465545654296880,29.0662593841552730,107,3,338,817,62,2172431226,2178880470,2193368968,2164582651,2642,0,-4,58888
1341258648,6505,15.8999996185302730,9.0735998153686520,34.9683990478515600,411.7614135742187500,527.2623901367188000,8.9657020568847660,28.9222297668457030,98,3,307,619,63,2180952438,2188046134,2203810093,2169113727,1780,1,-4,35059
1341258709,6468,14.2700004577636720,9.2667999267578120,34.9749984741210940,410.1543884277344000,518.8031005859375000,9.2307682037353520,28.8387298583984380,99,3,282,644,59,2186414532,2194402408,2211980959,2172491538,1589,0,-4,35446
1341258809,6471,11.3000001907348630,10.2272996902465820,34.9760017395019500,397.0647888183594000,488.5172119140625000,10.1754798889160160,28.7478103637695300,96,3,207,589,59,2202149225,2210845023,2229584314,2181305430,1425,0,-9,45818
1341258870,6469,9.5299997329711910,10.6216001510620120,34.9844017028808600,383.7886047363281000,475.0570983886719000,10.5933303833007810,28.9235496520996100,85,3,181,559,60,2212833055,2223671853,2245765394,2188676026,1221,6,-4,2519
1341258950,6469,7.7199997901916500,10.9207000732421880,34.9919013977050800,371.9588928222656000,464.4628906250000000,10.9214000701904300,29.1129608154296880,83,3,148,628,50,2223997009,2234587076,2255714948,2196738463,2163,1,-2,26604
1341259014,6470,6.3699998855590820,11.0309000015258790,34.9915008544921900,368.5184936523437500,459.4703979492187500,11.0757598876953120,29.1429901123046880,77,3,132,566,57,2237369467,2249412895,2272685434,2206204648,1698,2,-2,33047
1341259104,6468,4.0999999046325680,11.5045003890991210,34.9850006103515600,364.7096862792969000,445.5461120605469000,11.5055198669433600,29.0586795806884770,97,3,104,637,49,2262761092,2277304671,2301839053,2231156534,1961,16,-4,14546
1341259166,6469,0.1000000014901161,0.0000000000000000,0.0000000000000000,364.5087890625000000,443.4328002929687500,11.5706396102905270,29.0351009368896500,88,3,94,625,48,2272927135,2286300232,2315137772,2246357261,2060,6,0,51468
